ECMWFFLT2_con_mucape_021.txt.gz
CAPE
0 0 0 0 0 0 0 0 0 0 0 0 6 0 0 0 0 0 0 0 0 0 0 0 4 11 10 27 5 16 55 76 324 314 380 434 486 638 873 1046 1199 1449 1477 1696 1697 1740 1626 1623 1820 2000 2365 2496 2418 2571 2722 2844 2925 3062 2981 2905 2965 3008 3176
0 0 0 0 0 0 0 0 0 0 0 12 0 0 24 0 0 4 0 0 0 0 0 506 3 0 5 38 69 18 82 225 220 232 552 586 552 654 956 1232 1492 1553 1465 1636 1676 1687 1606 1681 1801 2104 2606 2560 2605 2726 2687 2848 2963 3047 3068 2965 2936 3010 3106
0 0 0 0 0 0 0 0 0 0 0 0 118 15 0 0 0 0 0 0 0 0 0 0 0 4 32 189 364 40 64 70 108 280 544 699 650 635 834 958 1284 1349 1497 1661 1809 1700 1640 1790 2056 2341 2587 2582 2615 2665 2621 2645 2872 2906 3048 2916 2964 3023 3026
0 0 0 0 0 0 0 0 0 0 0 12 0 0 52 0 0 0 0 0 0 0 0 0 0 6 430 188 227 102 30 82 244 321 362 661 777 820 820 840 1126 1302 1410 1516 1724 1775 1746 1878 2155 2215 2223 2237 2243 2406 2624 2689 2786 2996 3066 3050 3034 3060 3014
0 0 0 0 0 0 0 0 0 0 0 0 2 0 0 0 0 0 0 0 0 0 0 0 0 46 223 297 291 536 392 67 129 331 449 702 807 857 857 982 1083 1222 1289 1368 1593 1788 1874 1974 2125 1984 1940 2104 2133 2242 2512 2604 2807 2906 3006 3006 3008 3083 3046
0 0 0 0 0 0 0 0 0 0 0 0 0 0 0 0 0 2 0 0 0 0 0 0 27 29 70 254 294 534 402 294 176 268 394 818 866 982 1010 1020 1065 1163 1352 1480 1628 1859 2030 2110 2063 1981 1988 2116 2178 2282 2417 2499 2480 2711 2627 2914 3111 3166 3168
0 0 0 0 0 0 0 0 0 0 0 0 0 0 0 0 0 0 6 0 0 104 0 0 0 1 0 48 42 74 106 265 233 208 133 682 1022 932 820 962 971 1176 1547 1641 1862 2171 2329 2354 2332 2193 2226 2224 2287 2423 2509 2566 2574 2673 2637 2901 3123 3261 3189
0 0 0 0 0 0 0 0 0 0 0 0 0 0 63 0 0 0 0 0 0 3 153 0 0 280 293 98 5 73 88 174 228 93 127 750 936 1110 1005 992 1044 1452 1787 1954 2268 2535 2603 2564 2583 2493 2509 2480 2467 2527 2505 2537 2670 2794 2844 2898 3056 3253 3140
0 0 0 0 0 0 0 0 0 0 0 0 0 0 16 0 0 0 0 0 0 0 442 72 35 0 0 0 14 80 210 563 252 227 489 718 1114 1254 1103 1253 1450 1637 1663 2113 2466 2432 2664 2757 2654 2758 2755 2704 2619 2707 2650 2639 2781 2860 2984 2998 3050 3095 3047
0 0 0 0 0 0 0 0 0 0 0 0 0 0 0 0 78 4 0 0 0 272 198 2 27 16 28 21 30 30 66 461 275 278 486 1024 1077 1308 1330 1535 1626 1444 2051 2446 2538 2662 2718 2621 2584 2865 2888 2740 2683 2774 2828 2761 2793 2870 2965 3050 3022 3037 2884
0 0 0 0 0 0 0 0 0 0 0 0 0 6 0 0 8 0 0 0 0 0 0 8 4 113 55 36 271 334 418 308 399 656 796 850 1168 1340 1132 1550 1710 2185 2148 2212 2446 2628 2562 2462 2644 2816 2722 2674 2644 2844 2874 2732 2772 2898 3055 3098 3096 2973 2770
0 0 0 0 0 0 0 0 0 0 0 0 0 0 0 46 0 0 0 0 0 0 2 65 187 174 386 520 689 586 621 600 438 441 824 657 763 979 1424 1502 1608 1800 2198 2411 2437 2544 2502 2573 2764 2688 2730 2760 2786 2892 2826 2770 2714 2808 2974 3096 3135 2968 2672
0 0 0 0 0 0 0 0 0 0 0 0 0 0 0 14 0 0 0 0 0 14 0 21 164 338 392 164 442 406 644 450 445 405 324 419 573 886 1031 1500 1854 2010 2149 2386 2348 2418 2489 2499 2537 2615 2624 2673 2815 2855 2702 2804 2668 2742 2935 3136 3144 2956 2636
0 0 0 0 0 0 0 0 0 0 0 0 0 0 0 0 0 0 13 32 0 0 0 1 76 370 220 467 438 174 120 196 491 386 624 558 625 707 977 1342 1467 1868 2069 2332 2415 2436 2500 2406 2520 2479 2608 2749 2724 2696 2690 2718 2729 2696 3132 3226 3202 2894 2599
0 0 0 0 0 0 0 0 0 0 0 0 0 0 0 0 0 0 0 163 102 0 44 39 469 542 63 44 10 42 274 439 409 521 543 638 674 728 1066 1555 1422 1685 1931 2129 2320 2362 2392 2398 2490 2506 2598 2558 2556 2364 2512 2552 2710 2835 3109 3274 3216 2862 2609
0 0 0 0 0 0 0 0 0 0 0 0 0 0 0 0 0 0 0 0 0 0 0 0 19 115 230 131 339 473 497 334 640 660 707 805 870 856 974 1131 1302 1552 1624 1922 2012 2111 2169 2286 2445 2468 2526 2481 2390 2263 2480 2546 2505 2690 2860 3005 3011 2836 2604
2 1 0 0 0 0 0 0 0 0 0 0 0 0 0 0 0 0 0 0 0 0 131 10 34 12 124 246 274 492 563 634 549 828 946 870 911 1024 1095 1234 1340 1295 1305 1564 1834 1833 1951 2000 2144 2204 2459 2262 2353 2424 2537 2618 2546 2842 2938 2983 2969 2803 2499
39 34 0 0 0 0 0 0 0 0 0 0 0 0 0 0 0 0 0 0 0 62 125 0 119 140 261 394 711 619 729 868 830 753 1092 1016 900 835 831 1135 1217 1342 1413 1410 1595 1940 2096 2044 1962 2150 2071 2171 2388 2524 2689 2916 2945 2969 2962 2926 2874 2705 2435
12 56 0 0 0 0 1 79 4 0 0 0 0 0 0 0 0 0 0 1 36 126 12 79 161 171 942 130 175 102 54 236 476 656 620 912 789 868 1145 1187 1034 1431 1546 1612 1693 1867 1755 1633 1940 2114 2060 2045 2338 2412 2598 2731 2907 2982 2892 2880 2678 2552 2256
16 19 12 11 24 40 33 0 10 0 0 0 0 0 0 7 0 0 0 0 0 157 172 92 254 248 116 100 150 147 125 285 386 342 466 550 613 908 901 1243 1552 1677 1339 1514 1424 1701 1741 2053 1908 1820 2000 1875 1908 2304 2587 2726 2842 2796 2768 2692 2532 2296 2076
48 182 20 28 144 19 19 29 34 20 16 0 0 0 0 19 2 0 0 0 71 55 30 42 31 110 61 249 212 15 40 86 152 433 607 576 791 1120 1298 1120 1500 2028 1896 2012 1745 2203 1956 1810 1920 1887 2033 1864 2100 2380 2399 2580 2718 2620 2525 2486 2358 2090 1822
11 24 13 49 17 2 91 64 74 24 2 17 67 66 80 70 32 0 0 55 122 207 54 2 80 221 68 58 176 180 168 60 123 185 480 572 784 1062 1177 2035 1990 2077 2119 2115 2090 1718 1818 2104 2475 2438 2137 2163 2375 2431 2535 2569 2526 2450 2302 2288 2155 1874 1680
20 24 11 9 30 69 448 238 100 76 17 15 64 3 1 292 55 31 36 58 256 295 197 227 182 103 60 196 309 490 398 194 154 460 528 582 841 1143 1288 1518 1838 2123 2407 2290 2016 2203 2154 2060 1838 2039 2226 2336 2325 2473 2488 2380 2318 2238 2159 2128 1875 1676 1557
38 23 2 6 82 121 261 129 88 60 74 6 28 7 13 320 77 119 79 94 197 211 310 250 305 206 192 393 299 581 1042 796 1066 1337 1328 1339 1284 1413 1688 1898 2092 2047 1986 2064 2172 2042 1791 1501 1432 1804 1936 2088 2333 2346 2208 2020 2059 2102 1976 1846 1666 1508 1315
26 16 21 132 244 412 202 41 40 54 85 71 125 17 251 236 227 72 26 66 70 186 162 118 358 294 1020 1234 1162 1361 1371 1243 1413 1615 1700 1787 1800 1733 1615 1532 1546 1694 1718 1834 1754 1577 1390 1315 1372 1552 1842 1956 1837 1740 1775 1878 1978 1888 1747 1551 1359 1285 1224
35 16 11 19 202 180 5 32 16 84 2 46 138 402 5 64 65 17 14 8 10 89 468 556 1089 1449 1260 1309 1473 1775 1833 1912 1852 1619 1574 1484 1409 1396 1412 1410 1370 1344 1282 1295 1208 1114 1148 1200 1155 1339 1677 1786 1546 1577 1628 1816 1852 1506 1380 1280 1212 1141 1163
24 12 50 4 27 454 4 210 278 215 219 569 174 166 156 102 242 291 474 414 580 985 1242 1450 1523 1395 1387 1549 1732 1861 1983 2088 2105 2048 2002 1869 1665 1584 1500 1342 1302 1410 1476 1366 1148 882 993 1097 1334 1348 1582 1624 1551 1430 1746 1739 1301 1159 1176 1120 1116 1124 1161
797 476 276 63 344 78 13 0 210 348 240 148 230 445 465 530 588 754 828 1013 1202 1356 1504 1418 1433 1469 1445 1526 1639 1602 1593 1708 1958 2154 2305 2250 1939 1508 1190 1097 1212 1383 1193 874 853 1012 1106 1148 1292 1388 1648 1653 1542 1678 1796 1235 1147 1104 1100 1150 1194 1206 1170
304 587 753 60 67 103 120 65 2 181 421 630 641 727 722 695 693 839 823 791 821 928 1082 1231 1188 1164 1249 1360 1424 1580 1570 1561 1473 1369 1440 1653 1702 1639 1376 1096 1075 1174 1178 1021 977 1080 1227 1363 1508 1496 1652 1867 1696 1928 1400 1128 1078 1095 1184 1218 1243 1202 1181
262 14 17 30 144 177 174 114 347 330 329 323 314 319 251 276 323 332 445 488 600 824 1012 838 918 1017 1032 1074 1070 1248 1504 1665 1954 1886 1723 1685 1650 1620 1471 1202 1036 1013 1061 1136 1175 1248 1319 1540 1638 1676 1706 1812 2124 1792 1213 1100 1104 1192 1234 1255 1234 1203 1164
79 21 320 74 64 121 108 121 89 85 86 69 55 51 81 84 50 40 138 132 75 164 460 594 663 658 789 816 1020 1249 1354 1251 1594 1889 2255 2166 2070 2094 1823 1493 1335 1317 1232 1261 1372 1338 1482 1562 1531 1625 1559 1484 1700 1228 1122 1091 1145 1187 1198 1188 1175 1142 1100
222 12 116 52 65 114 80 71 63 58 64 46 36 22 34 112 112 131 122 123 94 128 183 466 480 540 724 1000 1099 960 1149 1336 1445 1533 1609 1873 1926 1500 1672 1597 1546 1589 1668 1616 1448 1360 1495 1479 1550 1474 1383 1312 1259 1166 1089 1141 1185 1214 1142 1030 981 959 975
0 5 150 0 0 3 96 31 19 21 24 2 0 0 29 36 83 94 90 107 97 93 111 384 500 584 595 856 1058 941 1242 1468 1438 1386 1496 1479 1509 1629 1754 1658 1716 1934 1670 1516 1393 1353 1336 1358 1378 1405 1257 1197 1154 1121 1140 1202 1297 1244 1064 872 836 858 777
20 170 0 1 0 0 0 0 20 0 0 0 14 0 0 13 81 80 80 37 0 56 76 118 129 116 145 138 519 434 1052 1324 1401 1332 1190 1119 1176 1326 1305 1348 1414 1443 1472 1555 1345 1177 1139 1152 1176 1195 1191 1168 1147 1151 1212 1302 1310 1180 1011 928 927 940 877
70 67 0 0 0 0 0 0 0 0 0 9 37 34 0 0 26 63 49 60 68 100 120 101 110 133 140 109 74 64 47 707 1068 1139 1112 1136 1138 1162 1166 1281 1347 1489 1389 1317 1282 1138 1058 946 983 1028 1120 1128 1170 1213 1304 1392 1203 1001 1002 922 782 743 698
0 0 0 0 0 0 0 0 0 0 0 0 6 8 8 22 28 23 30 26 28 36 30 31 39 42 44 47 37 44 62 54 49 38 620 841 960 1085 1172 1240 1263 1220 1177 1187 1128 1164 1003 911 1024 1002 1036 1099 1165 1272 1361 1220 875 974 912 877 816 733 691
0 0 0 0 0 0 0 0 0 0 0 0 0 0 0 0 0 0 0 0 0 0 0 0 0 4 24 42 14 9 13 40 15 48 268 438 433 690 853 1230 1388 1285 1269 1184 1175 1124 974 980 1134 1099 1001 1065 1168 1296 1273 898 810 916 958 894 829 862 853

ECMWFFLT2_con_mucape_024.txt.gz
CAPE
0 0 0 0 0 0 0 0 0 0 0 0 0 0 16 32 18 0 4 2 0 0 8 72 71 15 0 0 20 30 78 228 927 1007 1063 1401 1554 1638 1859 2034 2139 2345 2414 2472 2474 2572 2590 2738 2854 2802 2981 3085 3092 3370 3600 3905 4012 4026 4305 4431 4322 4323 4340
0 0 0 0 0 0 0 0 0 0 0 0 5 13 16 15 2 0 0 8 0 0 1 26 12 0 0 0 0 0 12 351 867 907 987 1160 1460 1569 1834 2180 2349 2464 2471 2566 2451 2477 2532 2610 2661 2886 3131 3275 3270 3407 3517 3834 3940 3936 4303 4434 4280 4370 4448
0 0 0 0 0 0 0 0 0 0 0 0 0 6 16 17 0 0 0 0 0 0 2 9 4 0 0 0 2 0 0 431 908 935 1091 1174 1328 1454 1679 1906 2371 2593 2555 2601 2674 2454 2461 2664 2832 2914 3072 3278 3304 3379 3452 3551 3838 3917 4108 4278 4305 4330 4386
0 0 0 0 0 0 0 0 0 0 0 0 0 0 0 8 0 0 0 0 0 0 0 2 8 0 0 0 0 0 0 69 984 1051 1120 1324 1462 1427 1574 1730 2175 2545 2567 2551 2543 2491 2486 2660 2787 2803 2868 2989 3015 3182 3463 3568 3756 3937 4059 4261 4295 4403 4322
0 0 0 0 0 0 0 0 0 0 0 0 0 0 0 0 2 1 0 0 0 0 0 0 0 0 0 0 0 0 0 0 121 993 1033 1263 1624 1600 1612 1750 2006 2333 2450 2456 2477 2489 2479 2563 2763 2716 2705 2920 2906 2975 3258 3450 3678 3888 3877 4181 4199 4390 4338
0 0 0 0 0 0 0 0 0 0 0 0 0 0 0 0 0 0 0 0 0 0 0 0 0 4 0 0 0 0 0 0 0 183 1112 1403 1821 1817 1738 1668 1816 2023 2338 2493 2390 2494 2499 2507 2595 2604 2618 2831 2848 2932 3033 3242 3130 3405 3455 3840 4224 4396 4444
0 0 0 0 0 0 0 0 0 0 0 0 0 0 0 0 0 0 2 0 0 0 0 0 0 0 0 0 0 0 0 0 28 1010 1011 1464 1932 1877 1612 1630 1561 1702 2121 2318 2370 2541 2686 2632 2690 2759 2707 2668 2912 2931 2999 3223 3186 3208 3172 3410 3966 4458 4478
0 0 0 0 0 0 0 0 0 0 0 0 0 0 0 0 0 0 1 0 0 0 0 0 0 0 0 0 0 4 0 2 250 1215 1076 1472 2038 2052 1629 1416 1222 1512 1936 2380 2492 2715 2879 2873 2961 2959 2872 2909 2965 2966 2926 3063 3196 3136 3242 3212 3599 4354 4544
0 0 0 0 0 0 0 0 0 0 0 0 0 0 0 0 0 0 9 0 0 0 182 716 224 0 0 0 0 84 527 520 434 1313 1528 1287 1967 2248 1792 1499 1515 1776 2068 2456 2829 3006 3272 3211 3025 3234 3128 2943 2946 3060 3018 2862 3119 3229 3344 3330 3447 4076 4438
0 0 0 0 0 0 0 0 0 0 0 0 0 0 0 0 0 0 0 0 0 1 366 78 108 83 0 0 0 0 52 1050 1195 1664 1977 2042 2107 2373 2044 1773 1778 1988 2467 2968 3229 3364 3554 3397 3306 3486 3408 3190 3026 3233 3183 3066 3106 3304 3385 3438 3370 3730 4290
0 0 0 0 0 0 0 0 0 0 0 0 0 0 0 0 0 0 0 0 6 3 0 0 0 0 0 0 0 0 242 525 868 2248 2314 2250 2298 2553 1982 2165 2176 2522 3132 3392 3606 3813 3790 3495 3617 3703 3559 3446 3278 3457 3505 3201 3166 3375 3534 3596 3688 3683 4187
0 0 0 0 0 0 0 0 0 0 0 0 0 0 0 0 0 0 0 0 0 0 0 0 0 0 0 0 0 0 0 573 1359 1708 2949 1694 2229 2266 2371 2478 2750 3127 3547 3752 3952 4114 3930 3746 3793 3772 3648 3684 3683 3798 3780 3583 3361 3325 3532 3806 3936 3952 4182
0 0 0 0 0 0 0 0 0 0 0 0 0 0 0 0 0 0 0 0 0 0 0 0 0 0 0 0 0 0 0 0 1294 2954 2580 1903 2001 2384 2340 2799 2988 3264 3448 3905 4096 4042 3890 3765 3811 3911 3904 3826 3970 4055 3980 4040 3548 3596 3824 4030 4189 4240 4378
0 0 0 0 0 0 0 0 0 0 0 0 0 0 0 0 0 0 0 0 0 0 0 0 0 0 0 0 0 0 0 163 1674 2092 2510 1797 1697 2088 2393 2892 2912 3219 3523 3908 4100 4058 3925 3773 3854 3849 3795 3974 3953 4070 4092 4038 3989 3846 3951 4238 4445 4538 4561
0 0 0 0 0 0 0 0 0 0 0 0 0 0 0 0 0 0 0 0 0 0 0 0 0 0 0 0 0 0 0 0 350 1542 1605 1674 1483 1630 2370 2977 2906 3074 3347 3721 3885 3958 3868 3865 4023 3924 4108 4158 4111 3905 4090 4107 4171 3965 4076 4405 4652 4693 4726
0 0 0 0 0 0 0 0 0 0 0 0 0 0 0 0 0 0 0 0 0 0 0 0 0 0 0 0 0 0 7 0 514 1492 1419 1339 1784 1695 2236 2643 2834 2972 3174 3763 3894 3981 3875 3909 4237 4357 4362 4322 4266 4010 4134 4070 4053 3974 4001 4315 4599 4773 4800
28 0 0 0 0 0 1 0 0 0 0 0 0 0 0 0 0 0 0 0 0 0 0 0 0 0 0 0 0 0 16 1202 1262 1353 1507 1446 1919 2118 2520 2879 2924 2985 3243 3718 3850 3786 3798 4026 4292 4239 4438 4191 4321 4224 4285 4261 4170 4071 4152 4170 4620 4902 4895
180 38 0 0 0 0 0 0 0 0 0 0 0 0 0 0 0 0 0 0 0 0 0 0 0 0 0 0 515 415 773 1869 2970 1653 1350 1513 1672 2155 2328 2780 2978 3182 3240 3404 3628 3831 4005 4074 4124 4200 4204 4232 4434 4251 4249 4334 4250 4182 4266 4377 4612 4797 4869
230 168 30 16 8 0 0 0 0 0 0 0 0 0 0 0 0 0 0 0 0 0 0 0 0 14 110 372 574 525 1321 1682 1537 2154 1690 1848 2119 2406 2617 2965 2846 3134 3231 3380 3731 3778 3664 3648 3990 4147 4129 4044 4256 4179 4243 4362 4392 4319 4336 4616 4631 4654 4710
241 274 179 65 12 5 3 1 16 17 9 0 0 0 0 0 0 0 0 0 0 0 0 0 0 20 2 513 1766 2196 1307 1017 844 694 1151 1654 1971 2244 2440 2892 2775 3025 2778 3217 3381 3633 3660 3667 3947 4034 3845 3502 3531 4198 4316 4422 4435 4424 4544 4582 4495 4494 4498
286 214 59 38 78 5 23 70 229 224 206 76 4 0 0 0 0 0 0 0 0 0 0 0 0 540 655 616 562 625 493 725 655 385 627 924 1553 1772 2238 2331 2513 3157 3107 3290 3524 3795 3604 3354 3240 2965 3096 3212 3639 4230 4243 4214 4442 4415 4398 4336 4242 4440 4324
64 377 199 221 197 161 172 633 429 470 392 427 352 244 241 0 0 0 0 0 0 0 0 0 299 546 303 88 3 134 442 685 837 614 759 790 1142 1412 1781 2100 2970 3198 2857 2632 3478 3001 3060 2687 3046 3193 3189 3147 3891 4180 4025 4095 4344 4265 4174 4094 4210 4312 4089
127 95 45 129 120 159 733 806 268 396 346 353 330 209 145 21 1 0 0 0 0 0 0 69 698 299 56 10 5 47 684 678 536 638 997 1170 1335 1928 2250 2598 2640 2308 2680 2992 2984 2942 3155 3817 3780 3686 3615 3898 4022 4007 3979 4219 4090 4048 3904 3968 4072 4133 3872
59 150 134 10 168 166 746 549 429 342 458 157 288 190 60 8 1 2 1 0 0 0 4 618 676 254 40 15 12 1480 1076 572 592 971 1297 1466 1656 1817 2126 2097 2612 3501 3570 3365 3420 3845 3966 4036 3962 4008 4009 3595 3500 3867 4234 3869 3666 3765 3778 3925 3970 3727 3509
122 98 99 136 154 868 278 550 249 370 417 633 576 244 98 688 849 650 1190 476 9 13 104 936 644 378 1272 2498 1454 1289 1370 1522 1721 1812 2058 2426 2420 2306 2451 3029 3286 3394 3182 3310 3486 3773 3940 3808 3732 3624 3536 3727 4002 4088 3748 3618 3735 3772 3842 3752 3569 3402 3262
82 208 138 162 140 802 212 586 453 611 422 468 576 872 628 1023 604 665 482 584 636 698 1015 1044 462 1464 1496 1725 1631 1730 2048 2358 2271 1990 2054 2271 2575 2906 3051 2886 2874 3056 3579 4161 4048 3937 3841 3737 3599 3749 4073 4128 4078 3782 3858 4022 3852 3643 3578 3356 3208 3162 2874
67 91 238 100 29 690 398 436 614 590 555 903 1039 991 1050 842 1038 773 816 424 663 860 1104 1096 1902 1471 1498 1649 2110 2216 2222 2326 2429 2539 2624 2753 2685 2768 2957 3204 3144 3338 3560 3478 3266 3081 2957 3204 3486 3592 3810 3845 3685 3788 4008 3585 3331 3290 3167 3010 2939 2757 2424
106 184 221 147 187 717 537 576 762 842 613 623 970 1195 1581 1076 1417 1572 1389 1658 1022 1223 1929 1882 2128 2500 2618 2688 2703 2800 2830 2866 2906 2814 2710 2706 2704 2558 2570 2832 2975 2980 2958 2691 2476 2512 2628 3029 3317 3466 3839 3737 3760 3847 3436 3020 2920 2898 2871 2770 2551 2408 2178
284 78 130 1034 966 725 444 556 430 129 35 273 526 980 1096 1508 1397 1696 1734 1878 1890 1942 2058 2055 1992 1990 2138 2209 2301 2426 2496 2524 2500 2490 2312 2195 2187 2234 2268 2310 2474 2526 2610 2692 2621 2632 2704 2950 3163 3300 3525 3825 3814 3422 3012 2848 2812 2828 2696 2499 2355 2180 2119
827 529 908 818 713 526 447 314 253 35 24 279 520 794 984 973 1212 1374 1635 1654 1696 1724 1705 1740 1682 1653 1640 1635 1736 1999 2285 2583 2763 2804 2701 2601 2490 2486 2523 2626 2539 2469 2483 2565 2701 2773 2886 2939 3078 3414 3732 3952 3694 3018 2755 2734 2745 2749 2568 2472 2280 2158 1868
150 306 822 819 396 310 352 303 125 105 254 482 512 631 786 574 660 763 774 919 1025 1129 1153 1500 1522 1514 1692 1959 2163 2346 2440 2336 2365 2550 2852 3008 3013 3028 3060 2952 2839 2961 2954 2920 2968 2893 2859 2808 2821 3084 3536 3420 2996 2781 2635 2620 2590 2592 2522 2361 2130 1898 1922
574 1392 764 444 164 146 240 172 124 96 457 506 560 533 538 536 511 435 473 507 548 542 1042 1132 840 823 1058 1310 1487 1576 1904 2224 2502 2654 2662 2805 2717 2923 3213 3277 3110 2964 2954 3107 2975 2962 2803 2673 2705 2844 2844 2778 2554 2443 2262 2211 2370 2432 2262 2142 1981 1854 1709
634 754 582 470 171 56 16 30 23 134 394 394 147 414 403 119 359 179 118 273 234 331 534 792 1247 1504 1305 1060 1225 1424 1900 2171 2338 2510 2500 2677 2773 2807 3004 3320 3409 3241 3249 3320 3085 2782 2732 2748 2754 2725 2404 2186 2248 2192 2068 2217 2345 2368 2108 1795 1824 1474 1452
752 554 636 881 396 55 24 0 6 58 89 98 94 90 103 92 88 88 66 30 50 67 243 534 646 770 941 1161 1350 1405 1801 2092 2242 2202 2141 2189 2276 2395 2554 2775 3008 3135 3255 3285 3165 2895 2727 2682 2651 2540 2292 2123 2051 1822 1978 2090 2240 2316 2058 1821 1654 1370 1392
637 463 696 254 312 630 393 230 5 9 74 108 40 84 61 66 2 0 20 38 27 14 56 103 286 424 510 582 681 832 1148 1440 1644 1893 2098 1996 1980 2132 2304 2382 2493 2596 2590 2701 2876 2830 2669 2581 2372 2324 2305 2108 1979 1776 1865 2083 2297 2310 2128 1880 1597 1246 1057
261 272 227 411 526 98 0 0 0 6 4 1 35 18 18 30 58 12 12 20 50 23 31 24 14 64 82 83 223 346 506 699 973 1134 1372 1712 1850 1846 1992 2354 2582 2592 2608 2622 2452 2376 2288 2314 2330 2344 2206 2147 2058 1888 2009 2060 2114 2176 2069 1853 1703 1485 1231
345 14 210 29 6 1 0 0 0 0 0 0 0 0 0 22 47 54 59 52 40 52 42 30 24 0 0 0 18 68 75 88 93 103 466 604 771 1284 1627 2133 2403 2367 2161 2077 2134 2172 2080 2218 2403 2306 2291 2158 2070 1913 1958 1878 1853 1909 2013 1756 1388 1294 1402

ECMWFFLT2_con_mucape_030.txt.gz
CAPE
0 0 0 0 0 0 0 0 0 0 0 0 0 0 2 21 1 0 0 0 0 0 0 0 0 3 3 6 5 5 0 0 12 114 595 599 565 502 562 893 1523 1987 1879 2186 2690 2629 2439 2418 2442 2339 2514 2701 3006 3231 3759 4384 4583 4646 4622 4219 4092 4275 4448
0 0 0 0 0 0 0 0 0 0 0 0 0 0 0 0 3 0 0 0 1 4 1 0 0 3 1 8 2 2 15 29 35 479 553 658 628 860 990 1368 1708 1962 2047 2582 2639 2431 2064 2263 2234 2521 2772 2707 2975 3237 3536 4170 4528 4743 4731 4434 4064 4123 4360
0 0 0 0 0 0 0 0 0 0 0 0 0 0 0 0 0 0 0 0 0 2 2 2 0 0 7 4 26 2 29 8 0 986 467 974 1159 926 1065 1054 1964 2136 1949 2305 2995 2602 2127 2286 2529 2791 2960 2797 2762 3133 3356 3665 4266 4609 4767 4278 4098 4097 4318
0 0 0 0 0 0 0 0 0 0 0 0 0 0 0 0 0 0 0 0 2 0 0 4 4 9 25 7 16 0 4 5 5 94 982 1394 927 872 823 780 1353 1750 1875 1696 2113 2450 2374 2357 2836 2812 2738 2484 2226 2633 3380 3546 3985 4625 4802 4645 4482 4444 4323
0 0 0 0 0 0 0 0 0 0 0 0 0 0 0 0 0 0 0 0 0 0 0 1 8 121 28 15 66 23 8 6 5 18 232 936 771 1177 1017 1214 1252 1505 1568 1696 2137 2417 2532 2449 2828 2647 2467 2325 1877 2218 2922 3413 4182 4379 4664 4726 4676 4499 4219
0 0 0 0 0 0 0 0 0 0 0 0 0 0 0 0 0 0 0 0 0 6 0 14 45 291 0 9 78 59 0 1 24 42 165 201 800 1363 1087 1022 1039 1433 2346 2646 2354 2324 2970 2595 2662 2635 2466 2152 1845 1865 2610 3306 3776 4038 4209 4756 4804 4513 4339
0 0 0 0 0 0 0 0 0 0 0 0 0 0 0 0 0 0 0 0 0 1 105 88 21 29 0 3 0 27 0 0 7 42 140 280 918 1145 810 778 751 963 2082 1983 1770 2110 3106 3004 3142 2817 2708 2247 2030 2284 2913 3005 3251 4051 4253 4428 4502 4665 4549
0 0 0 0 0 0 0 0 0 0 0 0 0 0 0 0 0 0 0 0 0 0 322 187 15 388 0 24 10 146 1 0 6 6 78 744 1679 1295 836 600 666 1471 1847 1893 1661 1815 3209 3350 3410 3409 3286 2899 2587 2562 2580 2674 3107 3835 4051 4115 4236 4723 4680
0 0 0 0 0 0 0 0 0 0 0 0 0 0 0 0 0 0 0 0 0 0 6 548 320 12 0 0 4 2 6 81 14 76 1378 1069 1791 1610 1271 1464 1690 1724 1472 1623 2172 3166 3824 3651 3623 3759 3626 3423 3117 3058 2787 2716 3074 3771 3859 3899 3741 4358 4372
0 0 0 0 0 0 0 0 0 0 0 0 0 0 0 0 2 16 0 0 0 29 46 42 63 54 117 12 0 0 16 715 155 388 1611 2507 2175 2894 2420 2563 2145 1694 1598 2214 3694 4386 4297 3904 3865 4034 3917 3679 3379 3289 3054 2970 3044 3461 3645 3462 3817 4231 3964
0 0 1 0 0 0 0 0 0 0 0 0 0 0 0 0 0 0 0 1 32 178 65 111 3 6 26 125 36 34 212 112 244 816 3467 3033 2785 3385 2951 3139 2503 2416 2528 3144 4424 4950 4551 3925 3927 4203 4098 3855 3520 3480 3156 2964 3155 3216 3519 3240 3772 4298 4654
0 0 0 0 0 0 0 0 0 0 0 0 0 0 0 0 0 0 0 105 14 0 17 166 161 2 22 114 145 20 146 604 748 138 329 4117 3983 3843 3960 3736 3656 3947 5412 5236 5103 5366 4775 4113 3998 4371 4197 3894 3689 3518 3114 2698 2852 2926 3118 3305 3763 4465 4800
0 0 0 0 0 0 0 0 0 0 0 0 0 0 0 0 0 0 0 123 139 30 0 0 69 376 253 18 17 0 83 128 317 3292 1946 4061 3880 3756 3656 3781 3717 4244 5775 6014 5729 5633 5084 4287 4046 4351 4249 3960 3818 3778 3196 2736 2464 2924 3184 3361 3726 4464 4907
0 0 0 0 0 0 0 0 0 0 0 0 0 0 0 0 0 0 0 103 15 0 0 0 0 11 16 94 207 54 108 37 292 3882 1183 777 2884 3568 3444 3878 4095 4688 5354 6101 5884 5866 5338 4571 4289 4284 4377 4250 3942 4074 3651 3328 2835 3146 3496 3614 3871 4548 5010
0 0 0 0 0 0 0 0 0 0 0 0 0 0 0 0 0 0 0 0 0 0 0 0 0 0 0 5 12 4 76 69 21 151 972 150 562 2249 3534 3731 3764 4207 4809 5672 5673 5587 5509 4929 4698 4473 4696 4548 4309 3613 3972 3424 3376 3525 3982 4152 4105 4700 5226
0 0 0 0 0 0 0 0 0 0 0 0 0 0 0 0 0 1 0 0 0 0 0 0 2 0 0 12 17 36 587 197 259 176 16 59 1075 2989 3627 3866 3273 4088 4413 5143 5332 5574 5429 5338 5065 4884 5030 4823 4552 3920 4259 3882 3463 4006 4437 4438 4262 4757 5422
0 0 0 0 0 0 0 0 0 0 0 0 0 0 0 0 0 0 0 0 0 7 43 5 0 0 0 1 3 3 2 703 459 199 228 77 660 1754 3103 3883 3833 4180 3920 4585 5191 5060 5119 5169 5110 5069 5206 4975 4724 4422 4733 4546 3900 4282 4853 4789 4650 4969 5711
0 0 0 0 0 5 0 0 0 0 0 0 0 0 0 0 0 0 0 0 12 25 8 3 13 8 28 154 282 344 553 742 2119 1534 292 124 90 341 3079 3990 4153 4145 4167 4681 5147 5508 5483 5381 4815 4848 4949 4958 4924 4846 5155 5074 4409 4569 5317 5154 5134 5268 5891
0 0 0 0 0 0 0 27 29 1 0 0 0 0 0 1 2 4 11 3 0 14 4 2 6 4 127 114 2 0 0 106 143 378 612 1136 456 272 1051 4395 4179 4563 4809 5318 5790 5920 5699 5172 5119 5236 5304 5240 5358 5219 5477 5187 4753 5456 5640 5453 5529 5481 5830
0 0 2 0 0 0 0 0 22 52 3 0 0 0 0 0 0 6 239 56 146 101 4 0 2 30 2 0 1 52 7 11 58 1 1 2 45 363 411 1719 5019 5254 5091 5374 5692 6035 5482 5337 4778 4943 5200 4823 4644 5263 5639 5233 5227 5836 5884 5777 5672 5692 5846
3 0 0 0 0 6 1 44 108 42 160 16 8 0 0 0 2 3 142 327 214 320 280 19 8 26 3 2 1 0 0 0 0 0 0 0 0 14 232 344 2666 5433 5385 5539 5631 6353 5859 5140 4908 4785 4678 4772 5049 5476 5631 5217 5811 5864 6012 5990 5924 5931 6036
3 0 6 0 0 0 35 67 308 163 95 97 84 46 115 256 115 143 1079 662 224 277 158 216 474 717 307 25 1 5 0 0 0 0 0 0 0 0 0 84 213 4577 5538 5387 5523 6269 5925 5337 5132 5505 5402 5276 5443 5806 5593 5367 5861 5807 6074 6119 6167 6291 6350
7 2 8 74 11 13 146 852 365 267 94 164 82 66 122 1094 1027 1250 794 866 884 880 1048 1320 1035 1020 536 348 0 0 0 0 0 0 0 0 0 0 0 0 119 4095 5341 5263 5708 6038 5938 5726 5641 5856 5656 5610 5738 5963 5940 5599 5652 5603 6059 6323 6311 6165 6143
69 51 26 24 126 92 342 528 428 225 236 93 108 145 122 2524 1968 1142 1335 1229 1036 1530 1644 1581 1301 950 448 269 564 190 11 29 5 7 48 39 6 0 0 0 108 4640 5547 5332 5966 6058 5839 5834 5840 6007 5849 5858 5740 5945 5932 5503 5545 5740 5847 6212 6168 6069 5715
16 84 43 67 24 238 897 504 246 267 78 113 106 95 292 1297 1472 1006 1146 1083 1282 1485 1533 1726 1465 1394 1231 872 584 163 39 29 0 544 1092 1420 738 516 76 1097 5318 6078 5884 5691 5847 5774 5634 5902 5975 5937 5817 5763 6017 5860 5902 5904 5741 5766 6049 6184 6070 5826 5421
35 46 49 31 26 223 468 128 203 113 162 162 212 1644 1020 1407 607 931 867 1106 1279 1501 1634 1802 1869 1727 1400 1028 682 327 117 521 911 124 1161 2109 1893 630 592 4356 5231 5312 5028 6052 5887 5800 5948 6023 5843 5770 5921 6014 6158 6040 5962 5906 5752 5662 5959 5896 5738 5568 5092
0 1 10 13 0 36 0 46 84 162 124 88 845 801 984 801 1020 1188 1257 1358 1740 1574 1588 1382 1363 1434 1400 1372 1257 1522 1645 1278 1306 1016 1321 2156 3564 4237 4757 5038 4690 4430 5345 5608 5465 5344 4853 5075 5297 5651 6010 6072 6064 5865 5766 5646 5606 5765 5600 5543 5381 5056 4670
3 0 0 1 0 75 142 343 327 1086 943 699 1110 842 764 594 768 877 1116 1543 1589 1673 1665 1834 1694 1528 1205 1825 2734 1965 1936 2220 1835 1862 2587 4740 4521 3968 3940 4299 4124 4398 5612 5460 4792 4688 4512 5188 5265 5517 5974 5782 5523 5346 5504 5436 5402 5208 5130 4943 4592 4159 3873
1 2 2 246 751 631 421 448 941 870 844 659 488 597 438 329 535 679 907 1236 1507 1771 2418 2407 2071 1818 1700 2176 2375 2660 2968 3075 3071 3013 4412 4498 4198 3966 3912 3784 4411 4836 4783 5009 4861 4928 5041 5123 5336 5460 5467 5109 4905 5302 5222 4907 4577 4717 4512 4238 3913 3700 3588
1107 909 832 682 724 596 400 305 320 228 203 167 331 434 466 356 593 977 1497 1769 1866 2005 2124 2311 2241 2038 2085 2525 2417 2401 2625 2546 2918 3456 3827 3951 3718 3732 3862 4074 4470 4442 4486 4600 4668 4628 4902 5359 5348 5230 5224 5273 4883 4779 4612 4320 4314 4177 4063 3857 3629 3486 3280
1166 688 1110 948 993 719 240 190 200 185 58 266 419 500 526 513 1137 1605 1675 1623 1552 1598 1794 2001 1900 1901 1813 1731 2065 2052 1979 2400 2461 2318 2566 2686 3754 4090 4339 4626 4476 4451 4482 4290 4187 4400 4898 5176 4965 4558 4385 4306 4139 4276 4138 3912 3783 3794 3560 3506 3329 3234 3104
793 559 777 895 733 624 447 52 403 287 291 414 482 605 699 809 840 838 1088 931 1070 1047 1185 1316 1528 1708 1887 1691 2075 2284 2253 2330 2279 2200 2267 2444 2891 3213 4105 4111 4215 4101 4344 4316 4548 4680 4498 4452 4298 4174 3964 3685 3768 3759 3375 3167 3340 3284 3190 3126 3054 2809 2601
557 207 282 608 570 398 334 441 394 304 268 200 158 341 277 254 282 249 205 466 686 970 1052 1097 1279 1434 1599 1739 1862 2047 2249 2423 2372 2214 2267 2143 1771 2284 2749 2818 3300 4140 4010 3697 3688 3811 3717 3865 3703 3634 3594 3322 2913 3162 3266 3099 3013 2839 2714 2529 2506 2086 1900
447 477 434 633 528 319 267 272 176 131 100 47 48 18 1 0 1 7 4 29 564 798 890 776 807 956 1028 1126 966 921 1224 1594 1550 2073 1911 1854 2064 2193 1961 2204 2290 2752 2668 3000 3076 3109 3055 2899 3005 3210 3167 3022 3032 2971 3000 2895 2731 2558 2485 2332 2148 2000 2009
294 680 786 904 396 299 229 172 202 54 39 13 0 0 0 0 0 0 174 500 621 822 883 792 688 594 690 586 526 472 634 836 774 825 825 1382 1611 1491 1701 1783 1692 1924 2959 3254 3296 3256 3281 3187 3110 2974 3074 3095 3202 2907 2803 2776 2682 2671 2561 2322 1988 1872 1678
237 371 568 748 487 284 203 116 51 61 12 0 0 0 0 0 0 0 0 0 453 662 781 892 841 710 583 489 495 695 584 528 596 709 659 993 1238 1390 1591 1884 2001 2540 2847 3356 3332 3338 3305 3221 3226 3284 3010 3113 3471 3177 3238 3182 2990 2945 2684 2372 2078 1605 1426
390 386 332 142 170 34 0 1 0 0 0 0 0 0 0 0 0 0 0 126 268 243 199 300 33 318 283 383 307 490 648 586 527 432 496 775 1113 1220 1613 2138 2711 3088 3250 3355 3372 3343 3368 3377 3258 3305 3308 3304 3402 3242 3263 3075 2924 2909 2800 2363 1700 1558 1627

ECMWFFLT2_con_mucape_033.txt.gz
CAPE
0 0 0 0 0 0 0 0 0 0 0 0 0 0 0 0 0 0 0 0 0 0 0 0 0 0 0 0 0 0 0 0 98 183 160 117 169 284 671 952 1016 1228 1274 1306 1328 1292 1267 1466 1500 1539 1650 1767 2062 2487 2923 3102 3093 3098 3061 3024 2951 2925 3017
0 0 0 0 0 0 0 0 0 0 0 0 0 0 0 0 0 0 0 0 0 0 0 0 0 0 0 0 0 2 2 4 67 97 175 302 353 331 331 808 1032 1199 1282 1313 1332 1331 1341 1490 1613 1592 1684 1760 1997 2394 2798 3070 3146 3258 3178 3108 3030 2947 3019
0 0 0 0 0 0 0 0 0 0 0 0 0 0 0 0 0 0 0 0 0 0 0 0 0 0 0 0 0 3 0 0 28 97 262 486 564 535 404 369 778 1051 1225 1263 1257 1338 1511 1564 1667 1693 1725 1760 1884 2309 2815 3003 3184 3322 3338 3191 3089 3001 3019
0 0 0 0 0 0 0 0 0 0 0 0 0 0 0 0 0 0 0 0 0 0 0 0 0 0 0 0 0 0 5 0 0 19 343 582 673 670 646 598 579 810 1019 1250 1316 1295 1424 1670 1746 1745 1771 1817 1907 2166 2751 3065 3173 3336 3434 3314 3148 3076 3046
0 0 0 0 0 0 0 0 0 0 0 0 0 0 0 0 0 0 0 0 0 0 0 0 0 0 0 0 0 0 0 0 0 19 214 508 655 708 692 653 593 673 890 1165 1400 1336 1482 1696 1790 1823 1783 1858 1974 2151 2538 3018 3198 3336 3491 3446 3236 3133 3108
0 0 0 0 0 0 0 0 0 0 0 0 0 0 0 0 0 0 0 0 0 0 0 0 0 0 0 0 0 0 0 0 0 18 177 292 374 537 528 479 275 558 1109 1319 1444 1481 1690 1994 2011 1926 1865 1854 1953 2141 2348 2840 3191 3326 3478 3526 3358 3176 3140
0 0 0 0 0 0 0 0 0 0 0 0 0 0 0 0 0 0 0 0 0 0 0 0 0 160 7 0 2 2 0 0 0 101 261 326 351 360 422 456 357 657 1129 1452 1637 1729 1796 2009 2111 2066 1954 1919 1937 2088 2265 2586 3019 3306 3431 3546 3472 3256 3145
0 0 0 0 0 0 0 0 0 0 0 0 0 0 0 0 0 0 0 0 0 0 0 704 134 49 268 4 11 6 0 0 0 123 305 322 364 368 524 498 620 962 1228 1370 1567 1869 1959 2056 2125 2070 2032 1999 1974 2024 2183 2397 2745 3141 3368 3528 3570 3395 3166
0 0 0 0 0 0 0 0 0 0 0 0 0 0 0 0 0 0 0 0 0 0 0 0 7 50 5 23 17 17 5 0 0 0 485 383 366 519 626 645 697 976 1320 1382 1456 1997 2139 2074 2138 2131 2106 2096 1952 1898 2015 2248 2480 2895 3230 3445 3648 3603 3367
0 0 0 0 0 0 0 0 0 0 0 0 0 0 0 0 0 0 0 0 0 0 0 0 0 5 14 13 18 128 8 1 0 0 744 539 436 641 726 704 702 884 1174 1371 1483 1928 2315 2340 2335 2271 2137 2113 2040 1992 1968 1921 2311 2614 3066 3367 3682 3770 3638
0 0 0 0 0 0 0 0 0 0 0 0 0 0 0 0 0 0 0 0 0 2 0 0 0 0 1 7 21 15 0 132 11 12 658 623 692 698 676 751 908 1057 1393 1542 1841 2156 2461 2553 2524 2487 2342 2302 2275 2262 2220 2124 2195 2555 3002 3378 3683 3892 3796
0 0 0 0 0 0 0 0 0 0 0 0 0 0 0 0 0 0 0 1 0 0 0 0 0 0 3 146 42 38 210 1162 874 589 376 986 800 819 730 774 947 1210 1670 1871 1932 2148 2474 2730 2759 2777 2657 2518 2497 2468 2424 2337 2167 2605 3058 3400 3708 3894 3893
0 0 0 0 0 0 0 0 0 0 0 0 0 0 0 0 0 0 0 0 0 0 0 0 2 32 2 154 436 93 14 705 1033 1119 777 948 883 802 738 716 950 1210 1374 1606 2111 2270 2399 2607 2879 3018 2913 2711 2635 2612 2560 2478 2309 2632 3047 3387 3616 3849 3889
0 0 0 0 0 0 0 0 0 0 0 0 0 0 0 0 0 0 0 0 0 0 0 0 0 62 277 480 535 317 27 69 1541 1490 1441 1048 950 857 642 888 1219 1381 1385 1432 1575 1722 2071 2329 2479 3009 3115 2952 2787 2728 2653 2573 2443 2509 2945 3291 3452 3645 3774
0 0 0 0 0 0 0 0 0 0 0 0 0 0 0 0 0 0 0 0 0 0 0 0 0 2 10 0 11 245 363 905 2354 1460 1511 1794 1667 1977 1972 1220 1526 1534 1462 1470 1800 2351 2655 2830 2832 2967 3208 3178 2984 2805 2721 2630 2519 2452 2849 3186 3296 3434 3592
0 0 0 0 0 0 0 0 0 0 0 0 0 0 0 0 0 0 0 0 0 0 0 0 0 14 10 19 25 35 236 418 2368 2252 2082 2569 2394 2750 2719 2082 1972 2193 2837 2673 2822 3263 3419 3252 3137 3210 3373 3336 3205 3092 2850 2730 2616 2477 2820 3070 3171 3286 3547
0 0 0 0 0 0 0 0 0 0 0 0 0 0 0 0 0 0 0 0 0 0 0 0 0 0 0 8 50 41 16 4 0 996 2314 2809 2729 2824 2803 2489 2295 2646 3565 3768 3472 3648 3798 3653 3443 3387 3514 3496 3396 3220 3096 2947 2767 2613 2740 2985 3057 3175 3565
0 0 0 2 2 2 0 0 0 0 0 0 0 0 0 0 0 0 0 0 0 84 42 0 0 0 0 0 1 3 0 19 29 57 146 694 2322 2514 2666 2507 2560 2934 3836 4311 4200 3944 3895 3818 3583 3515 3563 3617 3486 3349 3222 3075 2927 2778 2642 2880 2976 3110 3557
0 1 2 5 0 0 0 0 0 0 0 0 0 0 0 0 0 0 0 2 104 31 6 6 0 0 14 196 134 1 138 100 649 463 424 535 400 438 2496 2704 2590 2599 3007 3724 4188 4222 4082 3841 3644 3452 3547 3631 3585 3419 3302 3184 3026 2903 2747 2831 2890 3070 3536
0 6 30 22 0 0 0 0 0 0 0 0 0 0 0 0 0 242 251 197 354 109 63 133 54 8 0 0 0 0 0 38 218 218 95 28 211 1183 1525 2618 2680 2503 2497 3021 3620 3936 4014 3976 3694 3517 3557 3636 3659 3535 3364 3241 3105 2952 2800 2967 2937 3073 3535
0 0 12 1 0 0 0 0 0 0 100 118 1 41 215 670 539 514 496 477 532 859 516 279 264 280 137 50 2 0 0 0 0 0 0 0 0 0 751 2019 2372 2480 2508 2715 3310 3691 3903 3898 3833 3747 3684 3732 3789 3681 3618 3612 3199 3006 3324 3302 3140 3173 3597
0 0 4 1 0 0 0 0 0 0 20 0 0 72 376 1887 996 886 822 948 1348 1397 1224 599 156 13 18 100 34 327 542 522 0 0 0 0 0 0 260 1987 2480 3065 3222 3151 3360 3591 3766 3892 3960 3898 3854 3890 3902 3810 3766 3841 3580 3106 3847 3774 3459 3411 3800
0 0 0 0 0 0 0 121 0 29 28 0 0 1 522 1878 1602 980 977 1347 1370 1495 1490 1113 756 202 280 484 799 1064 963 870 644 15 0 0 0 0 0 702 2404 2938 3112 3299 3393 3724 3832 3979 4013 3983 3974 3995 4002 3912 3864 3966 3812 3602 4024 4135 3862 3776 4115
105 82 0 0 0 10 7 34 56 36 189 34 6 4 321 885 1460 878 1198 1363 1400 1450 1488 1571 1441 1486 1477 1364 1128 996 978 953 797 694 550 389 447 560 6 0 246 2250 2979 2766 2875 3592 4033 4044 4088 4068 4042 3989 3993 3976 3956 4042 3929 3824 4095 4300 4194 4126 4535
79 78 75 0 0 349 267 407 212 208 245 288 2 1 1002 1489 1199 1459 1393 1306 1367 1298 1375 1409 1434 1276 1252 1191 1040 2226 2823 2887 2439 1488 1022 1451 822 2339 2805 1457 492 3 2328 3111 3480 3812 4252 4187 4120 4098 4045 3958 3947 3984 4057 4102 4026 3978 4198 4472 4471 4560 5019
38 33 87 73 99 470 569 298 291 219 134 13 44 995 1069 1212 1156 1178 1331 1561 1665 1780 1842 1821 1912 1723 1863 2351 2539 2507 2752 2903 3004 2627 2638 3330 3549 4529 4718 4544 4505 3866 881 1822 3557 4109 4476 4315 4148 4136 4099 4000 3946 4028 4139 4191 4131 4114 4522 4818 4852 5053 5226
10 44 83 246 28 195 140 365 149 295 151 794 956 935 824 644 911 1403 1894 2192 2288 2409 2408 2374 2254 2158 2257 2287 2138 2084 2767 2751 3062 3201 2831 2728 2735 3325 3173 3298 3445 3756 4660 3461 3647 4471 4623 4483 4269 4288 4240 4137 4088 4228 4374 4372 4304 4677 5136 5185 5213 5252 5210
121 12 6 34 48 12 27 30 660 786 984 838 1138 814 735 593 1083 1664 1966 2044 2201 2315 2260 2097 1931 1796 1818 1792 1606 1826 2027 2219 2783 3725 3094 2896 2605 2898 3101 3162 2899 3198 3876 4414 4812 4744 4868 4714 4609 4571 4461 4383 4492 4614 4702 4551 4879 5281 5362 5312 5258 5200 5090
143 235 401 576 748 794 693 876 792 657 662 561 641 885 1305 1544 1584 1610 1689 1733 1690 1796 1837 1466 1365 1416 1457 1524 1549 1675 1774 1929 2336 3561 3637 3435 3070 2724 2862 2821 2865 2599 2751 3249 4344 3806 4481 5037 5022 4891 4821 4692 4781 4860 4901 4989 5268 5409 5372 5225 5181 5137 5040
446 294 321 318 380 530 740 643 654 546 533 785 1362 1356 1247 1139 1036 962 967 1077 1267 1309 1214 1112 1263 1318 1436 1473 1595 1616 1667 1740 1924 2257 3460 3654 3311 3193 3047 2688 2659 2602 2652 2700 2781 3156 3544 5130 5140 5037 4964 4822 4916 5067 5120 5174 5288 5353 5278 5164 5061 5040 4900
82 279 458 210 189 455 617 474 377 503 551 764 791 755 626 468 422 610 751 786 856 894 878 979 1092 1245 1331 1537 1592 1762 1775 1891 1902 2009 2132 2588 3101 2806 2804 2619 2641 2882 2515 2359 2239 2990 3979 4406 5182 5316 5149 4906 4997 5084 5092 5114 5216 5242 5171 5075 4922 4758 4516
480 320 160 280 191 68 363 396 583 627 577 530 484 509 521 405 55 286 511 515 368 369 363 688 832 992 1239 1383 1421 1601 1771 1928 2095 2027 1983 2009 2035 2009 2098 2326 2608 2708 2534 2551 3013 3296 3480 4098 4921 5127 4881 4692 4522 4950 5049 4988 5038 5071 4964 4734 4524 4289 4230
534 484 240 286 202 89 81 387 551 524 438 42 416 506 424 0 0 0 0 0 0 0 75 501 602 720 840 1053 1226 1355 1504 1805 2129 2196 2104 2138 2198 2103 1998 2238 2423 2636 2249 3098 3399 3220 3188 3578 4195 4399 4246 4026 4062 4273 4523 4650 4609 4585 4507 4016 4027 3836 3755
144 108 301 318 94 20 100 437 495 450 0 0 100 0 0 0 0 0 0 0 0 0 0 206 509 523 700 836 924 1011 1129 1241 1382 1709 2051 2092 1973 2202 2220 2258 2559 2292 2328 3118 3069 2846 3187 3481 3534 3589 3596 3537 3345 3857 3958 3847 3909 3501 3795 3675 3265 3143 3162
240 462 167 236 147 210 260 344 360 358 182 0 0 0 0 0 0 0 0 0 22 0 159 482 483 505 534 682 736 802 804 842 916 1026 1103 1303 1497 1863 2169 2230 2507 2236 2313 2854 3062 3270 3211 2873 2892 2853 3215 3334 2936 2895 2934 3130 3233 3408 3058 2523 2400 2622 2638
388 425 424 229 57 51 331 341 348 199 0 0 0 0 0 0 0 0 0 270 378 427 506 546 563 537 514 558 589 522 582 644 730 873 1052 1100 1105 1140 1143 1460 1806 1752 1740 2122 1917 1974 2006 2114 1983 2090 2064 2077 1695 2053 1734 1667 1660 1975 2249 1873 1706 1818 1866
340 452 227 16 34 58 63 79 44 0 0 0 0 0 0 0 0 0 0 0 0 199 577 624 590 544 643 673 617 529 483 402 418 522 556 660 938 1196 1166 1185 1143 1025 902 798 773 1047 1217 1551 1744 1969 1459 1652 1784 1421 1870 1541 1643 1460 1298 1306 1346 1377 1344

ECMWFFLT2_con_mucape_036.txt.gz
CAPE
0 0 0 0 0 0 0 0 0 0 0 0 0 0 0 0 0 0 0 0 0 0 0 0 0 0 0 0 0 0 0 0 10 66 84 117 142 339 360 345 155 110 177 359 400 366 478 617 686 715 840 984 1267 1604 1803 1793 1749 1843 2077 2134 1945 1791 1783
0 0 0 0 0 0 0 0 0 0 0 0 0 0 0 0 0 0 0 0 0 0 0 0 0 0 0 0 0 0 0 0 3 53 133 318 179 387 401 378 250 202 194 336 426 417 501 694 768 789 902 1022 1218 1548 1850 1908 1859 1857 2012 2190 2171 2002 1834
0 0 0 0 0 0 0 0 0 0 0 0 0 0 0 0 0 0 0 0 0 0 0 0 0 0 0 0 0 0 0 0 2 24 63 292 316 322 372 430 412 409 307 369 470 582 605 756 843 854 928 1075 1265 1550 1899 2038 2022 1990 2032 2161 2246 2210 2063
0 0 0 0 0 0 0 0 0 0 0 0 0 0 0 0 0 0 0 0 0 0 0 0 0 0 0 0 0 0 0 0 1 16 33 48 281 312 350 391 473 485 504 528 566 657 672 790 908 915 990 1119 1318 1602 1986 2162 2190 2148 2134 2183 2276 2281 2231
0 0 0 0 0 0 0 0 0 0 0 0 0 0 0 0 0 0 0 0 0 0 0 0 0 0 0 0 0 0 0 0 1 2 20 36 124 350 386 375 467 526 565 577 645 732 740 802 946 1025 1058 1179 1358 1654 2003 2242 2332 2325 2311 2307 2321 2336 2318
0 0 0 0 0 0 0 0 0 0 0 0 0 0 0 0 0 0 0 0 0 0 0 0 0 0 0 0 0 0 0 0 0 3 9 38 51 62 106 378 402 476 581 722 768 844 868 848 998 1079 1116 1235 1382 1647 1994 2324 2434 2461 2485 2469 2460 2437 2408
0 0 0 0 0 0 0 0 0 0 0 0 0 0 0 0 0 0 0 0 0 0 0 0 0 0 0 0 0 0 0 0 1 4 12 32 69 87 91 154 268 384 606 777 876 952 1015 1022 1115 1176 1198 1302 1401 1612 1935 2313 2504 2586 2617 2629 2602 2566 2514
0 0 0 0 0 0 0 0 0 0 0 0 0 0 0 0 0 0 0 0 0 0 0 0 0 0 0 0 0 0 0 0 2 7 22 35 84 125 156 167 213 340 629 781 923 1027 1095 1139 1206 1265 1294 1353 1430 1578 1859 2230 2494 2643 2730 2761 2731 2685 2629
0 0 0 0 0 0 0 0 0 0 0 0 0 0 0 0 0 0 0 0 0 0 0 0 0 0 0 0 0 0 0 0 3 26 45 138 218 283 230 185 191 311 610 795 986 1080 1144 1224 1290 1366 1396 1422 1465 1552 1769 2134 2381 2615 2781 2856 2847 2783 2723
0 0 0 0 0 0 0 0 0 0 0 0 0 0 0 0 0 0 0 0 0 0 0 0 0 0 0 0 0 0 0 2 57 83 168 252 351 426 434 238 204 472 513 765 985 1114 1176 1247 1371 1445 1478 1500 1522 1560 1699 1998 2303 2558 2753 2894 2934 2866 2812
0 0 0 0 0 0 0 0 0 0 0 0 0 0 0 0 0 0 0 0 0 0 0 0 0 0 0 0 0 0 0 0 111 114 197 338 434 461 504 418 203 463 453 629 878 1130 1205 1236 1399 1527 1528 1529 1556 1597 1666 1842 2187 2525 2722 2886 2982 2962 2883
0 0 0 0 0 0 0 0 0 0 0 0 0 0 0 0 0 0 0 0 0 0 0 0 0 0 0 0 5 5 4 1 0 112 134 340 422 447 457 455 238 342 513 719 896 1069 1207 1297 1442 1538 1586 1590 1591 1631 1705 1803 2045 2427 2681 2854 3000 3022 2971
0 0 0 0 0 0 0 0 0 0 0 0 0 0 0 0 0 0 0 0 0 0 0 0 0 0 0 0 3 16 20 4 0 0 69 178 172 288 336 390 463 490 546 749 942 1124 1247 1334 1478 1614 1665 1681 1691 1708 1747 1828 1946 2256 2580 2804 2973 3056 3047
0 0 0 0 0 0 0 0 0 0 0 0 0 0 0 0 0 0 0 0 0 0 0 0 0 0 0 18 84 6 76 260 83 48 3 107 200 258 302 354 426 500 609 749 873 1077 1366 1490 1540 1699 1806 1821 1781 1750 1760 1830 1939 2112 2407 2715 2909 3049 3098
0 0 0 0 0 0 0 0 0 0 0 0 0 0 0 0 0 0 0 0 0 0 0 0 0 0 0 0 0 23 76 320 404 102 116 183 203 310 333 381 430 487 600 791 914 1045 1338 1646 1735 1804 1881 1921 1926 1896 1856 1859 1933 2045 2244 2563 2826 3003 3104
0 0 0 0 0 0 0 0 0 0 0 0 0 0 0 0 0 0 0 0 0 0 0 0 0 0 0 0 0 22 68 115 560 439 234 306 320 403 388 455 537 602 664 835 1045 1196 1381 1705 1891 1937 2011 2024 2022 2031 1997 1953 1948 1993 2146 2397 2677 2893 3043
0 0 0 0 0 0 0 0 0 0 0 0 0 0 0 0 0 0 0 0 0 0 0 0 0 0 0 0 0 0 560 880 766 754 621 464 478 463 580 596 628 728 845 996 1146 1314 1452 1695 1964 2124 2178 2154 2127 2116 2087 2065 1996 1962 1999 2295 2530 2772 2965
0 0 0 0 0 0 0 0 0 0 0 0 0 0 0 0 0 0 0 0 0 0 0 0 0 0 0 0 0 0 539 1149 1002 928 878 846 708 713 704 700 714 852 999 1112 1266 1334 1446 1609 1890 2163 2315 2354 2329 2248 2183 2137 2096 2126 2209 2210 2456 2689 2896
0 0 0 0 1 0 0 0 0 0 0 0 0 0 0 0 0 0 0 0 0 0 0 0 0 0 0 95 114 78 0 243 1063 1043 1205 1020 921 968 906 776 818 849 987 1148 1333 1421 1431 1488 1692 2030 2364 2474 2510 2450 2367 2284 2261 2293 2310 2320 2425 2650 2847
0 1 2 0 0 0 0 0 0 0 0 0 0 131 492 545 2 0 0 0 0 0 0 0 0 0 0 730 1021 1038 858 319 0 79 972 1272 1111 1000 1018 980 898 889 979 1097 1200 1353 1473 1629 1756 1895 2284 2591 2679 2640 2559 2496 2438 2407 2404 2390 2415 2621 2815
0 0 3 0 0 0 0 0 0 0 0 0 0 331 463 895 810 50 27 35 90 81 56 0 0 0 0 544 1394 2086 1933 1368 597 134 0 375 1212 1334 1470 1674 1688 1362 1110 1177 1312 1328 1463 1714 1905 1995 2114 2455 2763 2821 2741 2675 2624 2502 2451 2431 2462 2582 2763
0 0 4 16 3 0 0 0 0 0 0 0 301 690 793 919 786 533 535 759 706 416 242 64 8 0 0 632 1300 2396 2464 2056 1821 1585 1480 902 0 40 216 1335 1763 1984 1963 1856 2036 2299 2057 1990 2139 2216 2202 2303 2530 2776 2866 2839 2734 2590 2447 2471 2492 2510 2691
0 2 0 3 5 0 0 2 0 1 500 703 566 665 812 918 1069 1104 1204 1184 1019 760 342 214 4 23 618 1102 1736 2322 2452 2332 2014 1878 1938 2112 2117 1693 564 35 818 1681 2038 2109 2123 2459 2842 2913 2791 2725 2705 2645 2719 2770 2789 2825 2811 2726 2607 2559 2553 2569 2609
8 2 1 0 0 0 0 3 27 3 10 59 0 325 772 886 1082 1039 1114 1091 1027 888 796 834 685 327 660 1554 2006 2273 2508 2641 2370 2006 1767 1715 1984 2721 3018 2503 822 766 1688 2232 2197 2248 2634 3042 3246 3306 3125 2994 2968 2975 2961 2931 2883 2858 2831 2738 2650 2606 2613
21 20 2 0 104 220 270 223 136 53 8 0 2 0 733 990 1133 1230 1384 1448 1484 1482 1380 1188 1533 2069 2120 2050 1942 1825 2173 2640 2813 2424 2005 1921 2170 2304 2394 2399 2820 1708 930 2042 2313 2399 2373 2717 3189 3510 3494 3234 3120 3127 3134 3071 3017 3014 2993 2927 2807 2738 2711
42 35 12 18 250 233 142 205 213 254 8 1 3 940 974 1426 1834 1991 1967 1954 1878 1827 1843 1915 1965 1820 1767 1518 1420 1579 1709 2012 2848 2972 2499 2132 2158 2177 2325 2290 2302 2776 3164 2570 1490 2192 2528 2616 2912 3308 3536 3463 3280 3214 3196 3178 3189 3204 3128 3005 2920 2837 2775
29 57 71 7 33 204 341 129 286 202 152 495 891 1405 1706 1704 1761 1824 1735 1692 1589 1471 1380 1325 1287 1301 1242 1216 1356 1402 1405 1499 1815 2624 3178 2728 2318 2408 2358 2411 2624 2454 2752 3221 3152 2937 3118 2674 2832 3196 3424 3568 3528 3328 3181 3196 3276 3272 3201 3105 2983 2897 2841
64 44 136 353 432 76 310 416 442 572 372 1079 1205 1359 1533 1514 1544 1484 1329 1138 1220 1155 1107 1063 1129 1154 1075 916 1180 1229 1382 1452 1440 1627 2572 3011 2676 2547 2664 2581 2594 2612 2654 2854 3126 3505 3332 3371 3460 3516 3471 3551 3562 3563 3433 3318 3243 3194 3203 3159 3068 2970 2929
151 179 262 409 370 310 481 558 926 1069 1130 1079 1385 1353 1276 1232 1167 1171 1115 1096 1062 1012 1059 1097 1130 1201 1291 1317 1418 1234 1370 1494 1450 1606 1671 2028 2632 2721 2564 2765 2782 2722 2626 2626 2814 3132 3430 3528 3565 3757 3725 3733 3732 3706 3542 3407 3358 3344 3290 3353 3388 3381 3406
458 120 213 270 549 662 483 720 1070 1130 1274 1152 981 879 911 938 906 795 822 813 846 842 937 1103 1181 1176 1355 1275 1329 1317 1356 1448 1567 1666 1647 1678 1862 2635 2977 2772 2774 2854 2790 2584 2576 2754 2930 3294 3674 3740 3871 3839 3888 3801 3783 3690 3627 3610 3624 3744 3736 3778 3856
228 24 70 189 248 489 528 668 988 968 986 816 813 867 836 787 706 635 540 559 619 685 723 778 828 1032 1114 1131 1172 1292 1340 1420 1532 1645 1722 1806 1834 1856 2009 2121 2483 2756 2819 2700 2598 2207 2439 2866 3122 3484 3621 3756 3740 3636 3871 4237 4053 4104 4111 4033 4092 4093 4061
414 208 144 182 333 462 517 646 630 584 747 697 514 598 636 598 517 350 285 241 178 0 183 269 482 615 728 866 999 985 1127 1250 1348 1529 1763 1791 1954 2083 2042 2070 1978 2216 2544 2511 2516 2607 2686 2678 2973 3421 3477 3384 3222 3217 3443 3894 4187 4068 3821 3936 3753 3907 4084
451 152 32 84 270 432 564 524 510 590 542 546 503 527 574 498 118 95 78 70 28 0 0 0 0 160 596 733 797 880 919 946 1025 1133 1385 1682 1868 1978 2038 2160 2190 2102 2258 2289 2232 2170 2156 2458 3096 3479 3910 4158 3994 3884 3964 4105 4222 4074 3918 3689 3804 3714 3881
38 43 224 314 243 106 282 381 674 666 617 532 287 385 467 394 229 46 42 30 12 0 0 0 0 380 516 599 712 725 799 827 971 1034 1100 1370 1608 1788 1950 1950 2083 2190 2170 2102 2100 2045 2226 2441 2789 3105 3187 3734 4381 4480 4426 4408 4059 4007 3994 3833 3735 3722 3737
280 906 753 804 172 86 303 283 571 612 449 314 286 176 0 172 16 12 2 0 0 0 0 0 366 450 533 604 694 779 735 834 919 1035 1120 1136 1352 1596 1646 1721 1802 1943 2084 2098 2019 1958 2004 1978 2005 2040 2010 2046 2597 3293 3887 3845 3986 4004 3619 3564 3572 3228 2428
536 584 763 827 362 108 61 197 134 252 343 336 335 236 0 0 0 0 0 0 334 470 530 556 542 560 520 603 703 813 958 996 1072 1176 1269 1257 1246 1229 1172 1129 1103 1088 1314 1429 1720 2052 1976 1838 1700 1575 1540 1578 1645 2204 2742 3182 3345 3408 3363 3198 2479 1922 1721
408 893 765 654 520 111 0 34 179 164 163 120 30 20 0 0 0 0 0 0 0 155 388 512 648 648 686 691 750 846 932 1024 1103 1150 1187 1225 1266 1315 1244 1145 1118 1096 1052 901 857 836 1025 1213 1248 1136 1076 1190 1275 1636 1948 2422 2185 2557 2428 2539 1689 944 1129